Location: ???????
(55.4362°N, 38.1183°E)
Time: 02:56:37
(UTC+00:00)

ATLAS 3B R/B - Pass Details

Date: 17 June 2021
Orbit: 1003 x 1191 km, 63.8° (Epoch: 21 July)

Event Time Altitude Azimuth Distance (km) Brightness Sun altitude
Rises 22:25:29 0° 262° (W) 3,763 5.4 -10.2°
Reaches altitude 10° 22:28:09 10° 268° (W) 2,831 4.8 -10.1°
Maximum altitude 22:34:36 49° 343° (NNW) 1,355 3.7 -9.9°
Drops below altitude 10° 22:41:21 10° 57° (ENE) 2,959 5.8 -9.6°
Sets 22:44:13 0° 63° (ENE) 3,947 6.4 -9.5°
